Regional Weather Roundup
Issued by NWS

Home | Current Version | Previous Version | Graphics & Text | Print | Product List | Glossary On
Versions: 1 2 3 4 5 6 7 8 9 10 11 12 13 14 15 16 17 18 19 20 21 22 23 24 25 26 27 28 29 30 31 32 33 34 35 36 37 38 39 40 41 42 43 44 45 46 47 48 49
815
ASUS45 KBOU 232007
RWRCO

WEATHER ROUNDUP FOR COLORADO
NATIONAL WEATHER SERVICE DENVER/BOULDER CO
200 PM MDT SUN APR 23 2017

NOTE: "FAIR" INDICATES FEW OR NO CLOUDS BELOW 12000 FEET WITH NO
SIGNIFICANT WEATHER AND/OR OBSTRUCTIONS TO VISIBILITY.

COZ001>005-013-030-031-232100-
...NORTHWEST COLORADO...

CITY           SKY/WX    TMP DP  RH WIND       PRES   REMARKS
CRAIG          FAIR      69  26  20 SW18G28   29.86F
HAYDEN         FAIR      68  25  19 W24G31    29.88F
MEEKER         FAIR      67  22  18 S13G26    29.90F
MOUNT WERNER   NOT AVBL
STEAMBOAT SPGS FAIR      64  26  23 W8        29.90F
WALDEN           N/A     61  21  21 SW20G26   29.96F
$$

COZ006>008-011-232100-
...WEST CENTRAL VALLEYS...

CITY           SKY/WX    TMP DP  RH WIND       PRES   REMARKS
GRAND JUNCTION FAIR      74  27  17 W17       29.83F
MONTROSE       FAIR      76  22  13 SW15G25   29.90F
EAGLE          MOSUNNY   70  23  17 W17G26    29.90F
RIFLE          FAIR      71  23  16 W9        29.85F
DELTA          FAIR      78  20  11 SE3       29.87F
NUCLA          FAIR      72  21  15 SW17G31   29.98F
$$

COZ017>023-064>068-232100-
...SOUTHWEST COLORADO...

CITY           SKY/WX    TMP DP  RH WIND       PRES   REMARKS
DURANGO        FAIR      65  25  22 VRB7      30.06F
CORTEZ         FAIR      70  27  20 S17G25    29.99F
PAGOSA SPRINGS FAIR      64  21  19 S10G17    30.11F
TELLURIDE      FAIR      60  20  22 SE13G28   30.11F
WOLF CREEK PAS FAIR      37  23  56 S22G37    30.31F
$$

COZ009-010-012-014-032>034-037-058>063-232100-
...CENTRAL COLORADO...

CITY           SKY/WX    TMP DP  RH WIND       PRES   REMARKS
ASPEN          FAIR      65  17  15 S17       29.96F
BUENA VISTA    FAIR      67  17  14 W8        29.99F
COPPER MTN     FAIR      46   5  18 SW15G33   30.19F
BERTHOUD PASS  FAIR      37  28  70 NW26G33   30.19F
COTTONWOOD PAS FAIR      61   7  11 SW21G30   30.09F
GUNNISON       FAIR      63  23  21 SW13G18   30.00F
KREMMLING      FAIR      73  19  13 W20G26    29.94F
LEADVILLE      FAIR      55  11  17 W8        30.07F
MONARCH PASS   FAIR      43  19  39 W18G36    30.32F
SALIDA         FAIR      65  23  20 S15G30    30.07F
SUNLIGHT       FAIR      48  21  34 SW9G28    30.15F
WILKERSON PASS FAIR      52  18  25 SW17G23   30.17F
$$

COZ069>075-232100-
...SAN LUIS VALLEY/SANGRE DE CRISTO MOUNTAINS...

CITY           SKY/WX    TMP DP  RH WIND       PRES   REMARKS
ALAMOSA        FAIR      65  28  24 MISG      30.04F
LA VETA PASS   FAIR      54  30  40 S15G29    30.28F
SAGUACHE       FAIR      59  25  27 SE13      30.08F
$$

COZ035-036-038>040-232100-
...NORTHERN COLORADO FRONT RANGE...

CITY           SKY/WX    TMP DP  RH WIND       PRES   REMARKS
DENVER INTL AP PTSUNNY   72  17  12 E13       29.82F
DMNS CITY PARK   N/A     71  20  14 E14G20    29.80F
AURORA         PTSUNNY   72  18  13 E7        29.83F
FRONT RANGE AP PTSUNNY   73  19  13 E12G21    29.85F
ERIE MUNI ARPT FAIR      73  19  12 SE6       29.81F
BOULDER MUN AP FAIR      72  23  16 S7        29.82F
CENTENNIAL     PTSUNNY   71  18  13 E8        29.83F
BROOMFIELD     PTSUNNY   70  25  18 SE9       29.85F
FORT COLLINS   FAIR      62  38  40 SE7       29.83F
LONGMONT       FAIR      70  37  29 E7        29.83F
$$

COZ041-046-047-076>085-087-088-232100-
...PIKES PEAK/PALMER DIVIDE AND SOUTHERN FOOTHILLS...

CITY           SKY/WX    TMP DP  RH WIND       PRES   REMARKS
COLO. SPRINGS  PTSUNNY   60  39  45 S12G22    29.94F
A. F. ACADEMY  FAIR      59  36  41 S14       29.93F
SCHRIEVER AFB  FAIR      58  36  43 S10G24    29.95F
ELLICOTT       FAIR     N/A N/A N/A S13       29.93F
FALCON         FAIR      59  37  43 S16G22    29.97F
FORT CARSON    FAIR      63  36  37 SE15G22   29.92F
LIMON          FAIR      63  36  36 S20G29    29.91F
MONUMENT HILL  FAIR      63  32  31 S18       29.94F
TRINIDAD       FAIR      71  29  21 E5        29.93F
$$

COZ042>045-048>051-090-091-232100-
...NORTHEAST COLORADO...

CITY           SKY/WX    TMP DP  RH WIND       PRES   REMARKS
GREELEY ARPT   FAIR      60  42  51 E5        29.84F
AKRON          FAIR      69  37  30 S20G30    29.85F
BURLINGTON     NOT AVBL
WRAY           NOT AVBL
STERLING       FAIR      70  41  35 W6        29.81F
HOLYOKE        FAIR      66  37  34 S23G32    29.87F
FORT MORGAN    FAIR      69  36  29 SE6       29.84F
$$

COZ086-089-092>099-232100-
...SOUTHEAST COLORADO...

CITY           SKY/WX    TMP DP  RH WIND       PRES   REMARKS
PUEBLO         FAIR      65  40  39 SE9       29.89F
LA JUNTA       FAIR      71  35  26 SE6       29.89F
LAMAR          FAIR      75  35  23 S20G32    29.88F
SPRINGFIELD      N/A     69  34  27 S23G43    29.96F
$$




USA.gov is the U.S. government's official web portal to all federal, state and local government web resources and services.